Change the Weather History Date:

Saturday, March 2, 2013

  Actual Average (EGLL) Record (EGLL)
Temperature  
Mean Temperature 33 °F -  
Max Temperature 40 °F 47 °F 59 °F (1999)
Min Temperature 25 °F 35 °F 24 °F (2004)
Degree Days  
Heating Degree Days 32    
Moisture  
Dew Point 29 °F    
Average Humidity 73    
Maximum Humidity 93    
Minimum Humidity 59    
Precipitation  
Precipitation 0.00 in - - ()
Sea Level Pressure  
Sea Level Pressure 30.33 in    
Wind  
Wind Speed 6 mph ()    
Max Wind Speed 9 mph    
Max Gust Speed -    
Visibility 7.4 miles    
Events      
Averages and records for this station are not official NWS values.
T = Trace of Precipitation, MM = Missing Value Source: Averaged Metar Reports

Daily Weather History Graph

Daily Weather History Graph

Search for Another Location

Airport or City:

Trip Planner

Search our weather history database for the weather conditions in past years. The results will help you decide how hot, cold, wet, or windy it might be!

Date:

Astronomy

Mar. 02, 2013 Rise Set
Actual Time 6:45 AM GMT 5:45 PM GMT
Civil Twilight 6:12 AM GMT 6:18 PM GMT
Nautical Twilight 5:34 AM GMT 6:57 PM GMT
Astronomical Twilight 4:55 AM GMT 7:36 PM GMT
Moon 11:51 PM GMT (3/2) 8:24 AM GMT (3/2)
Length of Visible Light 12h 06m
Length of Day
10h 59m
Waning Gibbous, 76% of the Moon is Illuminated
Mar 2
Waning Gibbous
Mar 4
Last Quarter
Mar 11
New
Mar 19
First Quarter
Mar 27
Full

Hourly Weather History & Observations

Time (GMT) Temp. Windchill Dew Point Humidity Pressure Visibility Wind Dir Wind Speed Gust Speed Precip Events Conditions
2:50 AM 37 °F - 28 °F 61% 30.39 in 19 mi ENE 4.6 mph - -   Overcast
5:50 AM 36 °F - 28 °F 62% 30.38 in 12 mi ENE 5.8 mph - -   Overcast
7:50 AM 35.6 °F 29.9 °F 28.4 °F 75% 30.36 in 6.2 mi NE 6.9 mph - N/A   Overcast
8:20 AM 35.6 °F 30.7 °F 28.4 °F 75% 30.36 in 6.2 mi NE 5.8 mph - N/A   Overcast
8:50 AM 36 °F - 28 °F 63% 30.38 in 22 mi ENE 8.1 mph - -   Overcast
8:50 AM 35.6 °F 29.2 °F 28.4 °F 75% 30.36 in 6.2 mi NNE 8.1 mph - N/A   Overcast
9:20 AM 35.6 °F 28.6 °F 28.4 °F 75% 30.36 in 6.2 mi ENE 9.2 mph - N/A   Overcast
9:50 AM 35.6 °F 29.2 °F 28.4 °F 75% 30.36 in 6.2 mi ENE 8.1 mph - N/A   Overcast
10:20 AM 37.4 °F 31.4 °F 28.4 °F 70% 30.36 in 6.2 mi NE 8.1 mph - N/A   Overcast
10:50 AM 37.4 °F 30.8 °F 30.2 °F 75% 30.36 in 6.2 mi East 9.2 mph - N/A   Overcast
11:20 AM 37.4 °F - 30.2 °F 75% 30.36 in 6.2 mi North - - N/A   Overcast
11:50 AM 37 °F - 29 °F 65% 30.37 in 14 mi NE 6.9 mph - -   Overcast
11:50 AM 35.6 °F 29.9 °F 30.2 °F 81% 30.36 in - NNE 6.9 mph - N/A   Overcast
12:20 PM 37.4 °F 33.8 °F 30.2 °F 75% 30.33 in 6.2 mi NE 4.6 mph - N/A   Overcast
12:50 PM 37.4 °F 32.8 °F 30.2 °F 75% 30.33 in 6.2 mi North 5.8 mph - N/A   Overcast
1:20 PM 37.4 °F 33.8 °F 28.4 °F 70% 30.33 in 6.2 mi North 4.6 mph - N/A   Mostly Cloudy
1:50 PM 39.2 °F 35.0 °F 30.2 °F 70% 30.33 in 6.2 mi NE 5.8 mph - N/A   Overcast
2:20 PM 39.2 °F 35.0 °F 30.2 °F 70% 30.30 in 6.2 mi NNE 5.8 mph - N/A   Mostly Cloudy
2:50 PM 39 °F - 30 °F 59% 30.32 in 17 mi NNE 5.8 mph - -   Mostly Cloudy
2:50 PM 39.2 °F 35.0 °F 30.2 °F 70% 30.30 in 6.2 mi NNE 5.8 mph - N/A   Mostly Cloudy
3:20 PM 39.2 °F 34.2 °F 30.2 °F 70% 30.30 in 6.2 mi ENE 6.9 mph - N/A   Mostly Cloudy
3:50 PM 39.2 °F 35.0 °F 30.2 °F 70% 30.30 in 6.2 mi NNE 5.8 mph - N/A   Mostly Cloudy
4:20 PM 37.4 °F 32.1 °F 30.2 °F 75% 30.30 in 6.2 mi NE 6.9 mph - N/A   Mostly Cloudy
4:50 PM 39.2 °F 35.0 °F 30.2 °F 70% 30.27 in 6.2 mi ENE 5.8 mph - N/A   Scattered Clouds
5:20 PM 37.4 °F 32.8 °F 30.2 °F 75% 30.27 in 6.2 mi NNE 5.8 mph - N/A   Scattered Clouds
5:50 PM 36 °F - 28 °F 64% 30.30 in 9 mi NE 4.6 mph - -   Scattered Clouds
5:50 PM 37.4 °F 32.8 °F 28.4 °F 70% 30.27 in 6.2 mi NE 5.8 mph - N/A   Scattered Clouds
6:20 PM 37.4 °F 32.8 °F 30.2 °F 75% 30.27 in 6.2 mi NNE 5.8 mph - N/A   Partly Cloudy
6:50 PM 35.6 °F 32.8 °F 30.2 °F 81% 30.30 in 6.2 mi Variable 3.5 mph - N/A   Partly Cloudy
7:20 PM 28.4 °F 24.6 °F 26.6 °F 93% 30.30 in 6.2 mi SW 3.5 mph - N/A   Partly Cloudy
8:50 PM 26 °F - 24 °F 89% 30.31 in 5 mi SW 3.5 mph - -  
11:50 PM 25 °F - 24 °F 92% 30.30 in 2 mi WSW 1.2 mph - -